Regional Weather Roundup
Issued by NWS

Home | Current Version | Previous Version | Graphics & Text | Print | Product List | Glossary On
Versions: 1 2 3 4 5 6 7 8 9 10 11 12 13 14 15 16 17 18 19 20 21 22 23 24 25 26 27 28 29 30 31 32 33 34 35 36 37 38 39 40 41 42 43 44 45 46 47 48 49 50
000
ASUS43 KOAX 232210
RWRNE

WEATHER ROUNDUP FOR NEBRASKA
NATIONAL WEATHER SERVICE OMAHA NE
500 PM CDT THU MAR 23 2017

NOTES: SATELLITE DATA IS BEING USED TO AUGMENT CLOUD COVER ABOVE
       12000 FEET.
       "FAIR" INDICATES FEW OR NO CLOUDS BELOW 12,000 FEET WITH NO
       SIGNIFICANT WEATHER AND/OR OBSTRUCTIONS TO VISIBILITY.

  * THESE STATIONS DO NOT REPORT WEATHER SUCH AS RAIN...SNOW OR FOG.

NEZ001>004-019>022-054>056-232300-
NEBRASKA PANHANDLE

CITY           SKY/WX    TMP DP  RH WIND       PRES   REMARKS
SCOTTSBLUFF    MOSUNNY   69  36  29 E9        29.56F
ALLIANCE       SUNNY     73  30  20 NE8       29.56S
CHADRON        CLOUDY    64  40  41 N15       29.60R
KIMBALL        MOSUNNY   73  32  22 S9        29.56F
SIDNEY         SUNNY     77  23  13 VRB6      29.53F
$$

NEZ057>060-069>072-079>082-232300-
SOUTHWEST NEBRASKA

CITY           SKY/WX    TMP DP  RH WIND       PRES   REMARKS
NORTH PLATTE   SUNNY     73  56  54 E9        29.55F
IMPERIAL       MOSUNNY   77  45  32 E10       29.52F
LEXINGTON      SUNNY     81  53  38 S23G31    29.52F
MCCOOK         SUNNY     85  39  19 S20       29.49F
OGALLALA       SUNNY     78  42  27 E6        29.53F
$$

NEZ005>010-023>029-035>040-094-232300-
NORTH CENTRAL NEBRASKA

CITY           SKY/WX    TMP DP  RH WIND       PRES   REMARKS
VALENTINE      CLOUDY    63  45  51 S6        29.59S
AINSWORTH      CLOUDY    59  51  74 S8        29.61R
BROKEN BOW     CLOUDY    63  32  31 E8        29.56F
O`NEILL        CLOUDY    56  54  92 S12       29.62S FOG
ORD            CLOUDY    59  55  87 SE12      29.59F FOG
THEDFORD       MOSUNNY   68  51  55 S10       29.59S
$$

NEZ041-046>049-061>064-073>077-083>087-232300-
SOUTH CENTRAL NEBRASKA

CITY           SKY/WX    TMP DP  RH WIND       PRES   REMARKS
GRAND ISLAND   CLOUDY    70  58  65 S17G28    29.62F
AURORA         CLOUDY    69  56  64 S16G23    29.63F
HASTINGS       MOSUNNY   74  56  53 S22G31    29.62F
HEBRON         CLOUDY    73  55  53 S26G35    29.65F
HOLDREGE       SUNNY     78  53  42 S23G30    29.56F
KEARNEY *      SUNNY     75  55  50 S26       29.58F
YORK           CLOUDY    70  55  60 S22G28    29.64F
$$

NEZ011>018-030>034-042>045-232300-
NORTHEAST NEBRASKA

CITY           SKY/WX    TMP DP  RH WIND       PRES   REMARKS
NORFOLK        CLOUDY    61  53  75 S15       29.64F
ALBION         CLOUDY    60  55  83 SE12      29.64S HAZE
BLAIR          MOSUNNY   73  52  47 SE15      29.67F
FREMONT        CLOUDY    69  52  54 E3        29.65F
TEKAMAH        CLOUDY    66  44  45 SE10      29.67F
WAYNE          CLOUDY    61  51  68 S13       29.66R
$$

NEZ050>053-065>068-078-088>093-232300-
SOUTHEAST NEBRASKA

CITY           SKY/WX    TMP DP  RH WIND       PRES   REMARKS
LINCOLN        MOSUNNY   75  53  46 S21       29.65F
OMAHA EPPLEY   PTSUNNY   74  52  46 S22       29.67F
BEATRICE       MOSUNNY   74  54  49 S25G39    29.66F
FALLS CITY     SUNNY     78  52  40 S20G30    29.72F
NEBRASKA CITY  CLOUDY    77  43  29 S30G38    29.68F
PLATTSMOUTH    CLOUDY    76  46  33 S22G29    29.67F
$$

NEZ044-045-051>053-067-232300-
OMAHA AREA

CITY           SKY/WX    TMP DP  RH WIND       PRES   REMARKS
OMAHA EPPLEY   PTSUNNY   74  52  46 S22       29.67F
BLAIR          MOSUNNY   73  52  47 SE15      29.67F
FREMONT        CLOUDY    69  52  54 E3        29.65F
MILLARD        MOSUNNY   77  55  45 S17G25    29.67F
OFFUTT AFB     MOSUNNY   76  52  43 S18G26    29.67F
PLATTSMOUTH    CLOUDY    76  46  33 S22G29    29.67F
WAHOO          MOCLDY    74  51  44 S23       29.66F
$$




USA.gov is the U.S. government's official web portal to all federal, state and local government web resources and services.